Regional Weather Roundup
Issued by NWS

Home | Current Version | Previous Version | Text Only | Print | Product List | Glossary On
Versions: 1 2 3 4 5 6 7 8 9 10 11 12 13 14 15 16 17 18 19 20 21 22 23 24 25 26 27 28 29 30 31 32 33 34 35 36 37 38 39 40 41 42 43 44 45 46 47 48 49 50
000
ASUS43 KOAX 092002
RWRNE

WEATHER ROUNDUP FOR NEBRASKA
NATIONAL WEATHER SERVICE OMAHA NE
200 PM CST FRI DEC 09 2016

NOTES: SATELLITE DATA IS BEING USED TO AUGMENT CLOUD COVER ABOVE
       12000 FEET.
       "FAIR" INDICATES FEW OR NO CLOUDS BELOW 12,000 FEET WITH NO
       SIGNIFICANT WEATHER AND/OR OBSTRUCTIONS TO VISIBILITY.

  * THESE STATIONS DO NOT REPORT WEATHER SUCH AS RAIN...SNOW OR FOG.

NEZ001>004-019>022-054>056-092100-
NEBRASKA PANHANDLE

CITY           SKY/WX    TMP DP  RH WIND       PRES   REMARKS
SCOTTSBLUFF    SUNNY     27  11  51 NE8       30.18R WCI  19
ALLIANCE       SUNNY     22   8  55 N12       30.17F WCI  10
KIMBALL        SUNNY     28  20  71 N9        30.11R WCI  20
SIDNEY         SUNNY     30  17  58 N10       30.13S WCI  21
$$

NEZ057>060-069>072-079>082-092100-
SOUTHWEST NEBRASKA

CITY           SKY/WX    TMP DP  RH WIND       PRES   REMARKS
NORTH PLATTE   MOSUNNY   26  12  55 S8        30.25F WCI  18
IMPERIAL       SUNNY     28  16  60 S10       30.18F WCI  19
LEXINGTON      CLOUDY    25  13  60 S13       30.31S WCI  13
MCCOOK         CLOUDY    28  16  60 S14       30.25F WCI  17
OGALLALA       SUNNY     27  15  61 CALM      30.20F
$$

NEZ005>010-023>029-035>040-094-092100-
NORTH CENTRAL NEBRASKA

CITY           SKY/WX    TMP DP  RH WIND       PRES   REMARKS
VALENTINE      SUNNY     20   6  55 VRB3      30.30F
AINSWORTH      CLOUDY    19   8  61 SE6       30.31F WCI  11
BROKEN BOW     CLOUDY    22   8  55 SE12      30.31S WCI  10
O`NEILL        CLOUDY    18   9  68 SE8       30.39F WCI   8
THEDFORD       SUNNY     27  10  49 W9        30.26F WCI  18
$$

NEZ041-046>049-061>064-073>077-083>087-092100-
SOUTH CENTRAL NEBRASKA

CITY           SKY/WX    TMP DP  RH WIND       PRES   REMARKS
GRAND ISLAND   CLOUDY    21  11  65 SE13      30.39F WCI   9
AURORA         CLOUDY    21  11  65 SE12      30.40F WCI   9
HASTINGS       CLOUDY    22  10  60 SE17      30.37F WCI   8
HEBRON         CLOUDY    23  11  61 S9        30.44F WCI  13
HOLDREGE       CLOUDY    23  13  65 S14G22    30.31F WCI  11
KEARNEY *      CLOUDY    25  10  54 S15       30.35R WCI  12
YORK           CLOUDY    21  10  63 S8        30.44F WCI  12
$$

NEZ011>018-030>034-042>045-092100-
NORTHEAST NEBRASKA

CITY           SKY/WX    TMP DP  RH WIND       PRES   REMARKS
NORFOLK        CLOUDY    16   7  67 SE7       30.46F WCI   6
ALBION         FLURRIES  17  10  73 SE8       30.42F WCI   7
BLAIR          CLOUDY    19  10  66 CALM      30.51S
FREMONT        CLOUDY    18  10  70 CALM      30.51F
TEKAMAH        CLOUDY    16   7  67 E3        30.54F
WAYNE          CLOUDY    16   8  70 SE5       30.49F WCI   9
$$

NEZ050>053-065>068-078-088>093-092100-
SOUTHEAST NEBRASKA

CITY           SKY/WX    TMP DP  RH WIND       PRES   REMARKS
LINCOLN        CLOUDY    22  10  60 SE6       30.51F WCI  14
OMAHA EPPLEY   CLOUDY    20   8  60 SE3       30.55F
BEATRICE       CLOUDY    25  11  56 S7        30.48F WCI  17
FALLS CITY     CLOUDY    25  11  55 VRB5      30.53F WCI  19
NEBRASKA CITY  CLOUDY    21   8  57 S5        30.52F WCI  15
PLATTSMOUTH    CLOUDY    21   8  58 S6        30.52F WCI  13
$$

NEZ044-045-051>053-067-092100-
OMAHA AREA

CITY           SKY/WX    TMP DP  RH WIND       PRES   REMARKS
OMAHA EPPLEY   CLOUDY    20   8  60 SE3       30.55F
BLAIR          CLOUDY    19  10  66 CALM      30.51S
FREMONT        CLOUDY    18  10  70 CALM      30.51F
MILLARD        CLOUDY    22  12  64 SE6       30.53F WCI  15
OFFUTT AFB     CLOUDY    21  11  65 S5        30.53F WCI  14
PLATTSMOUTH    CLOUDY    21   8  58 S6        30.52F WCI  13
WAHOO          CLOUDY    19  11  72 SE6       30.51F WCI  11
$$



USA.gov is the U.S. government's official web portal to all federal, state and local government web resources and services.